Find USA 619

NORAD ID: 69646 Int'l Des: 2026-141 Owner: NROC Country: US operational
LEOCIRCULARRETROGRADE

現在のビュー

3D地球を読み込み中...

About USA 619

USA 619 (NORAD 69646) is a satellite launched Jun 19, 2026 by NROC of US. It operates in LEO, CIRCULAR, RETROGRADE orbit with a mass of 800.00 kg.

次回通過

Passes for default location (London). Set your location on the main map for personalized predictions.

高度履歴

Loading altitude history...

軌道要素

1 69646U 26142A 26170.97340911 .00019110 00000-0 25026-3 0 9996
2 69646 97.4466 68.4895 0083844 249.9691 109.2522 15.54435927 80
Epoch: Jun 19, 2026 • Age: 7 hours

現在のステータス

高度 430.5 km
速度 7.65 km/s
衛星直下点 42.20°N, 105°W
打ち上げ日 Jun 19, 2026
運用期間 1 day
タイプ military

技術仕様

分類 Payload
質量 800.00 kg
乾燥質量 750.00 kg
総質量 800.00 kg
長さ 0.30 m
直径 4.10 m
スパン 29.00 m
形状 Box + pan
製造者 SPXS
バスタイプ Starshield
フェーズステータス In Orbit
所有者/国 NROC/US

Most Searched